Location: Newark
(46.7636°N, 1.8358°W)
Time: 18:47:56
(UTC+00:00)

Vanguard 2 Rocket - Pass Details

Date: 15 October 2019
Orbit: 554 x 3326 km, 32.9° (Epoch: 17 November)

Event Time Altitude Azimuth Distance (km) Brightness Sun altitude
Rises 08:33:41 0° 201° (SSW) 6,757 11.5 19.2°
Reaches altitude 10° 08:39:12 10° 190° (S) 6,015 11.5 20.0°
Maximum altitude 08:53:33 26° 143° (SE) 5,010 12.9 21.9°
Drops below altitude 10° 09:07:28 10° 96° (E) 5,878 12.0 23.6°
Sets 09:12:39 0° 86° (E) 6,589 11.8 24.2°
